• Processing (Info)

  • MPEC 2008-R19 : 2008 RW

    The following Minor Planet Electronic Circular may be linked-to from your own Web pages, but must not otherwise be redistributed electronically.

    A form allowing access to any MPEC is at the bottom of this page.


    Read MPEC 2008-R18 Read MPEC 2008-R20


    M.P.E.C. 2008-R19                                Issued 2008 Sept. 3, 23:24 UT
    
         The Minor Planet Electronic Circulars contain information on unusual
             minor planets and routine data on comets.  They are published
       on behalf of Commission 20 of the International Astronomical Union by the
              Minor Planet Center, Smithsonian Astrophysical Observatory,
                              Cambridge, MA 02138, U.S.A.
    
                 Prepared using the Tamkin Foundation Computer Network
    
                                  MPC@CFA.HARVARD.EDU
              URL http://www.cfa.harvard.edu/iau/mpc.html  ISSN 1523-6714
    
                                        2008 RW
    
    Observations:
         K08R00W* C2008 09 02.54898 23 06 19.29 -37 45 36.5          18.2 V ER019E12
         K08R00W  C2008 09 02.56802 23 06 32.32 -37 48 29.7          18.1 V ER019E12
         K08R00W  C2008 09 02.57771 23 06 38.98 -37 49 57.2          18.2 V ER019E12
         K08R00W  C2008 09 02.59200 23 06 48.83 -37 52 06.0          18.5 V ER019E12
         K08R00W  C2008 09 02.59910 23 06 53.69 -37 53 09.7          18.2 V ER019E12
         K08R00W  C2008 09 02.60618 23 06 58.62 -37 54 13.9          18.4 V ER019E12
         K08R00W  C2008 09 02.66016 23 07 36.22 -38 02 16.1          18.2 V ER019E12
         K08R00W  C2008 09 02.66194 23 07 37.48 -38 02 31.7          18.1 V ER019E12
         K08R00W  C2008 09 02.66372 23 07 38.71 -38 02 47.8          18.1 V ER019E12
         K08R00W  C2008 09 02.66547 23 07 39.93 -38 03 03.3          18.0 V ER019E12
         K08R00W  C2008 09 02.71117 23 08 12.48 -38 09 47.9          18.0 V ER019E12
         K08R00W  C2008 09 02.71423 23 08 14.67 -38 10 14.1          18.1 V ER019E12
         K08R00W  C2008 09 02.71732 23 08 16.90 -38 10 42.0          17.9 V ER019E12
         K08R00W  C2008 09 02.72040 23 08 19.14 -38 11 08.8          17.7 V ER019E12
         K08R00W  C2008 09 02.77410 23 08 58.63 -38 19 00.3          18.1 V ER019E12
         K08R00W  C2008 09 02.77538 23 08 59.53 -38 19 10.8          18.1 V ER019E12
         K08R00W  C2008 09 02.77590 23 08 59.96 -38 19 15.7          18.3 V ER019E12
         K08R00W  C2008 09 02.77641 23 09 00.32 -38 19 21.1          18.1 V ER019E12
         K08R00W  C2008 09 02.77690 23 09 00.72 -38 19 24.3          18.2 V ER019E12
         K08R00W  C2008 09 02.77740 23 09 01.08 -38 19 29.2          18.2 V ER019E12
         K08R00W  C2008 09 02.77790 23 09 01.47 -38 19 33.2          18.2 V ER019E12
         K08R00W  C2008 09 02.77842 23 09 01.83 -38 19 37.6          18.1 V ER019E12
         K08R00W  C2008 09 02.77892 23 09 02.23 -38 19 42.8          18.1 V ER019E12
         K08R00W  C2008 09 02.77943 23 09 02.59 -38 19 47.2          18.4 V ER019E12
         K08R00W  C2008 09 03.24556 23 15 24.46 -39 33 12.3          18.4 R ER019I77
         K08R00W  C2008 09 03.24769 23 15 26.18 -39 33 31.6          18.7 R ER019I77
         K08R00W  C2008 09 03.24928 23 15 27.54 -39 33 47.2          18.9 R ER019I77
         K08R00W 5C2008 09 03.35377 23 17 04.53 -39 52 12.7          18.2 R ER019673
         K08R00W 5C2008 09 03.35845 23 17 08.34 -39 52 58.2                 ER019673
         K08R00W 5C2008 09 03.36343 23 17 12.42 -39 53 46.0                 ER019673
         K08R00W 5C2008 09 03.36829 23 17 16.43 -39 54 32.7                 ER019673
    
    Observer details:
    673 Table Mountain Observatory, Wrightwood.  Observer J. Young.  0.61-m f/16
        Cassegrain + CCD.
    E12 Siding Spring Survey.  Observer G. J. Garradd.  Measurers E. C. Beshore,
        A. Boattini, G. J. Garradd, A. R. Gibbs, A. D. Grauer, R. E. Hill,
        R. A. Kowalski, S. M. Larson, R. H. McNaught.  0.5-m Uppsala Schmidt + CCD.
    I77 CEAMIG-REA Observatory, Belo Horizonte.  Observers C. Jacques, E. Pimentel.
        Measurer C. Jacques.  0.30-m f/3.0 reflector + CCD.
    
    Orbital elements:
    2008 RW                                                  Earth MOID = 0.0442 AU
    Epoch 2008 Nov. 30.0 TT = JDT 2454800.5                 MPC
    M  16.80527              (2000.0)            P               Q
    n   0.35967939     Peri.  255.14643     +0.85066291     -0.52300499
    a   1.9582089      Node   136.35213     +0.50712630     +0.78965717
    e   0.5260725      Incl.    4.42691     +0.13854792     +0.32079172
    P   2.74           H   22.7           G   0.15           U   8
    Residuals in seconds of arc
    080902 E12  0.0   0.1+    080902 E12  0.0   0.5+    080902 E12  0.2+  0.6-
    080902 E12  0.4-  0.3-    080902 E12  0.0   0.2-    080902 E12  0.0   0.5-
    080902 E12  0.3-  0.1-    080902 E12  0.2+  0.1+    080903 I77  0.9-  0.6+
    080902 E12  0.1-  0.1+    080902 E12  0.3+  0.2-    080903 I77  0.7-  0.9+
    080902 E12  0.5-  0.3+    080902 E12  0.3-  0.5+    080903 I77  0.3+  0.0
    080902 E12  0.0   0.2-    080902 E12  0.2+  0.1+    080903 673  0.1-  0.2+
    080902 E12  0.2+  0.1+    080902 E12  0.1-  0.8-    080903 673  0.0   0.4-
    080902 E12  0.3+  0.3+    080902 E12  0.3+  0.3+    080903 673  0.2+  0.4-
    080902 E12  0.0   0.1+    080902 E12  0.1+  0.3-    080903 673  0.7+  0.5-
    080902 E12  0.1-  0.1+    080902 E12  0.3+  0.1+
    080902 E12  0.2+  0.3-    080902 E12  0.0   0.3+
    
    Ephemeris:
    2008 RW                  a,e,i = 1.96, 0.53, 4                   q = 0.9280
    Date    TT    R. A. (2000) Decl.     Delta      r     Elong.  Phase     V
    2008 09 01    22 49.73   -34 10.9    0.0746   1.077   154.0    24.2    18.4
    2008 09 06    00 09.61   -47 31.5    0.0536   1.047   136.3    41.7    18.1
    2008 09 11    03 46.98   -55 16.1    0.0450   1.020   106.5    71.1    18.5
    2008 09 16    06 43.23   -39 12.5    0.0541   0.996    78.7    98.2    19.9
    2008 09 21    07 45.20   -24 44.3    0.0745   0.975    65.2   110.9    21.2
    2008 09 26    08 13.69   -16 17.9    0.0993   0.957    60.4   114.4    22.0
    2008 10 01    08 30.97   -11 09.7    0.126    0.944    59.6   113.7    22.5
    
    Sonia Keys                   (C) Copyright 2008 MPC           M.P.E.C. 2008-R19
    

    Read MPEC 2008-R18 Read MPEC 2008-R20


    MPEC number:

    Enter an MPEC number in one of the following forms:

    • 1997-B01 (the full form)
    • J97B01 (the packed version of the full form)
    • B01 (the abbreviated form)